{"data":{"norad_id":57750,"epoch":"2026-09-20T02:41:03.643872Z","epoch_age_seconds":164816,"freshness":"FRESH","line1":"1 57750U 23131U   26263.11184773  .00000909  00000+0  42541-4 0  9992","line2":"2 57750  43.0050 161.8766 0001303 265.0129  95.0574 15.27583969169556","mean_motion":15.27583969,"eccentricity":0.0001303,"inclination_deg":43.005,"raan_deg":161.8766,"arg_perigee_deg":265.0129,"mean_anomaly_deg":95.0574,"bstar":4.2541e-5,"rev_number":16955,"period_min":94.266503787852,"perigee_km":482.14320045179,"apogee_km":483.9312224513,"semimajor_km":6861.1742114515,"source":"CELESTRAK","updated_at":"2026-09-21T09:00:33.682273Z"}}